Stations météo

réclame
Mon MeteoGroup
Altnaharra, Grande-Bretagne (3044): Température de l'air & dewpoint: 13.11.2017 19:00:00 - 19.11.2017 19:00:00 (GMT)Altnaharra, Grande-Bretagne (3044): Vitesse du vent & gusts: 13.11.2017 19:00:00 - 19.11.2017 19:00:00 (GMT)Altnaharra, Grande-Bretagne (3044): Direction du vent: 13.11.2017 19:00:00 - 19.11.2017 19:00:00 (GMT)Altnaharra, Grande-Bretagne (3044): reduced air pressure: 13.11.2017 19:00:00 - 19.11.2017 19:00:00 (GMT)Altnaharra, Grande-Bretagne (3044): visibility: 13.11.2017 19:00:00 - 19.11.2017 19:00:00 (GMT)Altnaharra, Grande-Bretagne (3044): Ensoleillement: 13.11.2017 19:00:00 - 19.11.2017 19:00:00 (GMT)Altnaharra, Grande-Bretagne (3044): Quantités de précipitations: 13.11.2017 19:00:00 - 19.11.2017 19:00:00 (GMT)
Date & Time tt [°C] td [°C] ff [km/h] ff [knt] fx [km/h] fx [knt] dd ppp [hPa] vv [km] sd [min] rr [mm]
19.11.2017 19:00:00 3,0 1,5 5 3 - - W 1017,9 45 0 0,0
19.11.2017 18:00:00 3,0 1,5 2 1 - - S 1018,3 50 0 0,0
19.11.2017 17:00:00 3,8 2,2 8 4 - - S 1018,9 26 0 0,0
19.11.2017 16:00:00 3,7 2,2 5 3 - - SSE 1019,3 50 0 0,0
19.11.2017 15:00:00 4,2 2,5 4 2 - - SSW 1019,7 50 0 0,0
19.11.2017 14:00:00 4,7 2,1 4 2 - - SW 1019,7 45 0 0,0
19.11.2017 13:00:00 4,2 2,1 8 4 - - S 1020,3 50 6 0,0
19.11.2017 12:00:00 4,7 2,5 8 4 - - WSW 1020,8 35 0 0,0
19.11.2017 11:00:00 4,1 2,8 4 2 - - SW 1021,0 45 6 0,0
19.11.2017 10:00:00 2,1 1,4 4 2 - - E 1021,1 35 0 0,2
19.11.2017 09:00:00 1,6 0,6 9 5 - - W 1021,3 9 0 0,0
19.11.2017 08:00:00 1,2 -0,1 8 4 - - W 1021,0 35 0 -
19.11.2017 07:00:00 -0,3 -1,2 2 1 - - S 1020,8 29 0 0,0
19.11.2017 06:00:00 -0,7 -2,0 4 2 - - E 1020,8 26 0 0,0
19.11.2017 05:00:00 1,3 -0,5 5 3 - - W 1021,0 30 0 0,0
19.11.2017 04:00:00 2,8 -0,3 5 3 - - S 1020,9 27 0 0,0
19.11.2017 03:00:00 2,7 0,5 11 6 - - S 1020,5 35 0 0,0
19.11.2017 02:00:00 1,9 0,4 5 3 - - S 1020,3 24 0 0,0
19.11.2017 01:00:00 2,5 1,2 15 8 - - W 1019,9 20 0 0,0
19.11.2017 00:00:00 2,2 0,6 16 9 - - W 1019,8 26 - 0,0
18.11.2017 23:00:00 2,7 0,4 22 12 - - W 1019,7 28 0 0,0
18.11.2017 22:00:00 4,1 1,1 24 13 - - W 1019,2 22 0 0,0
18.11.2017 21:00:00 3,1 1,3 22 12 - - W 1018,9 21 0 0,0
18.11.2017 20:00:00 3,1 2,2 18 10 - - W 1018,3 17 0 0,0
18.11.2017 19:00:00 2,3 1,0 11 6 - - W 1018,1 17 0 0,0
18.11.2017 18:00:00 1,8 0,9 8 4 - - W 1017,5 13 0 0,0
18.11.2017 17:00:00 3,1 2,3 18 10 - - WSW 1016,9 35 0 0,4
18.11.2017 16:00:00 3,6 2,5 31 17 55 30 W 1016,7 5 0 1,0
18.11.2017 15:00:00 4,0 2,8 28 15 - - W 1016,3 50 0 1,8
18.11.2017 14:00:00 5,3 3,6 34 18 48 26 W 1015,5 12 12 0,4
18.11.2017 13:00:00 4,2 2,8 24 13 52 28 W 1015,5 26 0 0,4
18.11.2017 12:00:00 5,0 0,4 18 10 - - WSW 1015,5 30 12 0,0
18.11.2017 11:00:00 5,9 -0,6 15 8 - - SW 1015,7 26 36 0,0
18.11.2017 10:00:00 3,8 -0,2 26 14 - - WSW 1015,6 25 0 0,0
18.11.2017 09:00:00 3,9 -1,3 9 5 - - WSW 1015,3 26 0 0,0
18.11.2017 08:00:00 1,8 -1,8 13 7 - - WSW 1015,2 25 0 0,0
18.11.2017 07:00:00 3,4 -1,9 15 8 59 32 WSW 1014,6 30 0 0,0
18.11.2017 06:00:00 2,0 -1,9 16 9 50 27 W 1014,1 30 0 0,0
18.11.2017 05:00:00 2,4 -1,4 21 11 - - W 1013,5 27 0 0,0
18.11.2017 04:00:00 3,1 -0,5 28 15 48 26 W 1013,3 28 0 0,2
18.11.2017 03:00:00 2,3 -1,0 18 10 68 37 W 1012,9 50 0 0,0
18.11.2017 02:00:00 4,1 0,8 34 18 61 33 W 1012,7 5 0 0,2
18.11.2017 01:00:00 3,9 0,8 31 17 54 29 W 1012,2 40 0 0,0
18.11.2017 00:00:00 3,2 1,4 28 15 67 36 W 1011,9 13 - 1,0
17.11.2017 23:00:00 4,8 1,9 37 20 68 37 W 1011,7 35 0 1,0
17.11.2017 22:00:00 4,9 1,9 44 24 68 37 W 1011,4 7 0 0,4
17.11.2017 21:00:00 4,2 3,0 46 25 70 38 W 1011,7 12 0 1,2
17.11.2017 20:00:00 4,6 2,5 44 24 72 39 W 1011,9 6 0 0,2
17.11.2017 19:00:00 4,9 3,7 29 16 76 41 W 1012,1 50 0 0,6
17.11.2017 18:00:00 4,5 3,5 41 22 70 38 W 1012,4 12 0 1,4
17.11.2017 17:00:00 5,7 4,3 46 25 65 35 WSW 1012,9 4,4 0 0,6
17.11.2017 16:00:00 5,5 4,3 44 24 78 42 WSW 1013,2 45 0 0,8
17.11.2017 15:00:00 5,6 5,1 42 23 76 41 W 1014,1 4,1 0 2,0
17.11.2017 14:00:00 6,6 4,4 35 19 70 38 WSW 1013,8 45 0 1,0
17.11.2017 13:00:00 6,7 4,0 44 24 68 37 WSW 1014,6 40 6 0,0
17.11.2017 12:00:00 6,4 4,1 48 26 68 37 WSW 1015,3 4,0 6 0,2
17.11.2017 11:00:00 6,1 4,0 22 12 67 36 SW 1015,9 23 0 0,4
17.11.2017 10:00:00 6,3 3,9 35 19 63 34 WSW 1015,8 23 0 0,0
17.11.2017 09:00:00 5,9 3,8 31 17 68 37 WSW 1015,7 12 0 0,6
17.11.2017 08:00:00 6,4 3,9 22 12 59 32 WSW 1016,4 9 0 0,0
17.11.2017 07:00:00 6,8 2,6 28 15 54 29 WSW 1016,3 28 0 0,2
17.11.2017 06:00:00 6,9 2,9 28 15 68 37 WSW 1016,4 28 0 0,0
17.11.2017 05:00:00 6,5 4,3 44 24 78 42 WSW 1016,3 35 0 0,4
17.11.2017 04:00:00 7,0 2,4 35 19 65 35 WSW 1016,4 11 0 0,0
17.11.2017 03:00:00 6,2 3,3 39 21 63 34 WSW 1016,7 35 0 0,2
17.11.2017 02:00:00 7,3 2,0 39 21 63 34 WSW 1017,1 27 0 0,0
17.11.2017 01:00:00 6,8 2,0 21 11 - - SW 1018,1 40 0 0,0
17.11.2017 00:00:00 6,4 1,9 15 8 - - S 1018,6 45 - 0,0
16.11.2017 23:00:00 6,2 0,9 16 9 - - SSW 1018,4 30 0 0,0
16.11.2017 22:00:00 5,8 1,4 21 11 48 26 SW 1018,6 28 0 0,0
16.11.2017 21:00:00 4,5 1,4 37 20 59 32 WSW 1018,4 30 0 0,2
16.11.2017 20:00:00 6,0 1,6 31 17 54 29 WSW 1017,9 26 0 0,0
16.11.2017 19:00:00 5,0 1,3 31 17 48 26 WSW 1017,6 23 0 0,0
16.11.2017 18:00:00 4,6 0,0 28 15 - - WSW 1016,7 26 0 0,0
16.11.2017 17:00:00 3,0 1,1 35 19 52 28 W 1016,3 35 0 0,2
16.11.2017 16:00:00 3,8 2,3 26 14 57 31 W 1015,8 2,2 0 1,4
16.11.2017 15:00:00 3,5 3,0 26 14 83 45 WSW 1014,3 45 6 1,0
16.11.2017 14:00:00 4,9 -0,1 46 25 78 42 WSW 1013,6 5 42 0,0
16.11.2017 13:00:00 5,3 -0,3 46 25 65 35 WSW 1012,9 30 54 0,2
16.11.2017 12:00:00 5,1 2,3 35 19 57 31 W 1012,0 20 6 1,8
16.11.2017 11:00:00 5,1 1,1 31 17 63 34 WSW 1010,7 22 6 0,2
16.11.2017 10:00:00 4,0 0,8 35 19 67 36 WSW 1010,0 18 0 3,4
16.11.2017 09:00:00 3,8 0,5 26 14 57 31 WSW 1008,7 40 0 1,2
16.11.2017 08:00:00 5,0 1,9 37 20 74 40 WSW 1007,4 30 0 0,4
16.11.2017 07:00:00 5,4 2,1 37 20 61 33 WSW 1006,2 3,4 0 0,2
16.11.2017 06:00:00 6,9 3,0 24 13 54 29 WSW 1004,8 30 0 0,0
16.11.2017 05:00:00 7,5 4,4 37 20 65 35 WSW 1003,9 45 0 0,6
16.11.2017 04:00:00 7,7 6,0 22 12 - - SW 1003,6 8 0 2,0
16.11.2017 03:00:00 8,1 6,0 24 13 52 28 SW 1003,8 9 0 3,0
16.11.2017 02:00:00 9,7 7,5 39 21 63 34 SSE 1002,2 30 0 0,0
16.11.2017 01:00:00 10,7 6,7 41 22 61 33 SSE 1003,5 50 0 0,0
16.11.2017 00:00:00 9,8 6,7 39 21 81 44 SSE 1004,4 50 - 0,0
15.11.2017 23:00:00 9,1 6,1 34 18 52 28 SSE 1005,8 50 0 0,0
15.11.2017 22:00:00 10,0 5,0 35 19 61 33 SE 1007,5 50 0 0,0
15.11.2017 21:00:00 9,8 5,1 31 17 52 28 SE 1009,1 50 0 0,0
15.11.2017 20:00:00 8,6 3,9 21 11 - - SSE 1010,7 45 0 0,0
15.11.2017 19:00:00 8,5 3,9 21 11 - - SE 1011,8 50 0 -
15.11.2017 18:00:00 7,8 3,5 8 4 - - SE 1013,7 50 0 0,0
15.11.2017 17:00:00 6,8 3,0 8 4 - - WSW 1014,9 50 0 0,0
15.11.2017 16:00:00 6,4 2,4 9 5 - - NNE 1016,5 50 0 0,0
15.11.2017 15:00:00 6,7 1,8 4 2 - - E 1017,8 45 0 0,0
15.11.2017 14:00:00 6,9 2,2 11 6 - - SE 1018,9 50 0 0,0
15.11.2017 13:00:00 6,2 3,4 8 4 - - WNW 1019,6 35 0 0,0
15.11.2017 12:00:00 6,1 2,9 5 3 - - S 1020,7 40 0 0,0
15.11.2017 11:00:00 5,9 3,2 9 5 - - S 1021,3 45 0 0,0
15.11.2017 10:00:00 3,2 1,3 4 2 - - WNW 1021,2 35 0 0,0
15.11.2017 09:00:00 1,3 0,9 8 4 - - WNW 1021,2 30 0 0,0
15.11.2017 08:00:00 1,1 -0,1 5 3 - - W 1021,0 29 0 0,0
15.11.2017 07:00:00 2,4 -0,3 4 2 - - W 1020,6 30 0 0,0
15.11.2017 06:00:00 4,2 1,3 9 5 - - SSW 1020,0 35 0 0,0
15.11.2017 05:00:00 3,7 1,7 4 2 - - N 1019,7 24 0 0,0
15.11.2017 04:00:00 5,4 2,3 18 10 - - SW 1019,1 25 0 0,2
15.11.2017 03:00:00 5,1 1,8 16 9 - - WSW 1019,2 27 0 0,0
15.11.2017 02:00:00 4,5 1,4 9 5 - - WSW 1018,8 30 0 0,0
15.11.2017 01:00:00 5,0 2,4 4 2 - - N 1018,3 28 0 0,0
15.11.2017 00:00:00 4,9 2,2 4 2 50 27 WSW 1017,7 40 - 0,0
14.11.2017 23:00:00 7,3 3,7 28 15 - - WSW 1016,1 30 0 0,0
14.11.2017 22:00:00 7,8 4,1 22 12 - - WSW 1016,2 40 0 0,0
14.11.2017 21:00:00 8,0 4,7 13 7 - - SW 1015,8 40 0 0,0
14.11.2017 20:00:00 7,7 4,5 8 4 - - S 1015,4 40 0 0,0
14.11.2017 19:00:00 7,0 4,3 9 5 - - ESE 1015,0 50 0 0,0
14.11.2017 18:00:00 7,4 4,6 8 4 - - SSW 1014,8 50 0 0,0
14.11.2017 17:00:00 7,1 3,7 8 4 - - W 1014,5 30 0 0,0
14.11.2017 16:00:00 7,5 4,8 11 6 - - S 1014,3 40 0 0,0
14.11.2017 15:00:00 7,8 4,0 11 6 - - SW 1014,5 40 0 0,2
14.11.2017 14:00:00 7,8 4,8 22 12 - - S 1014,3 50 0 0,0
14.11.2017 13:00:00 8,4 4,2 21 11 - - SSW 1014,3 50 30 0,0
14.11.2017 12:00:00 8,6 4,8 13 7 - - SSW 1014,5 45 12 0,0
14.11.2017 11:00:00 7,9 5,3 8 4 - - SW 1015,1 15 0 0,0
14.11.2017 10:00:00 8,0 4,4 13 7 - - SW 1014,9 50 18 0,0
14.11.2017 09:00:00 6,6 4,8 15 8 - - WSW 1014,5 40 0 0,0
14.11.2017 08:00:00 6,7 4,1 16 9 - - SW 1014,3 45 0 -
14.11.2017 07:00:00 7,0 4,2 11 6 - - SW 1013,9 45 0 0,0
14.11.2017 06:00:00 6,9 4,6 13 7 - - SW 1013,4 21 0 0,0
14.11.2017 05:00:00 7,1 5,1 16 9 - - WSW 1012,9 40 0 0,2
14.11.2017 04:00:00 6,9 5,7 9 5 - - WSW 1012,5 30 0 0,0
14.11.2017 03:00:00 6,9 6,1 9 5 - - W 1012,1 13 0 0,2
14.11.2017 02:00:00 6,5 5,3 8 4 - - W 1011,6 19 0 0,2
14.11.2017 01:00:00 7,5 6,0 22 12 - - WSW 1011,0 8 0 0,2
14.11.2017 00:00:00 7,8 5,7 26 14 - - WSW 1010,3 13 - 0,2
13.11.2017 23:00:00 7,7 6,3 16 9 - - SW 1010,1 9 0 -
13.11.2017 22:00:00 7,7 6,3 15 8 - - WSW 1009,7 6 0 0,2
13.11.2017 21:00:00 7,8 6,0 21 11 46 25 WSW 1009,6 13 0 0,4
13.11.2017 20:00:00 8,7 8,2 26 14 - - W 1009,2 3,9 0 0,4
13.11.2017 19:00:00 8,2 7,6 21 11 - - S 1008,7 6 0 0,8

tt = Température de l'air
td = dewpoint
ff = Vitesse du vent
fx = gusts
dd = Direction du vent
ppp = reduced air pressure
vv = visibility
sd = Ensoleillement
rr = Quantités de précipitations

stations d'obs. à proximité